"Sample Date","Sample Time","Sensor Name","Sample Value","Units","Flow Rate","Sample Interval","Sample Volume","Laser Status","Number Channels","Micron Size 0","Counts/Channel 0","Micron Size 1","Counts/Channel 1","Micron Size 2","Counts/Channel 2","Micron Size 3","Counts/Channel 3","Micron Size 4","Counts/Channel 4","Micron Size 5","Counts/Channel 5","Micron Size 6","Counts/Channel 6","Micron Size 7","Counts/Channel 7","Micron Size 8","Counts/Channel 8","Micron Size 9","Counts/Channel 9","Micron Size 10","Counts/Channel 10","Micron Size 11","Counts/Channel 11","Micron Size 12","Counts/Channel 12","Micron Size 13","Counts/Channel 13","Micron Size 14","Counts/Channel 14","Micron Size 15","Counts/Channel 15","Micron Size 16","Counts/Channel 16","Micron Size 17","Counts/Channel 17","Micron Size 18","Counts/Channel 18","Micron Size 19","Counts/Channel 19","Micron Size 20","Counts/Channel 20","Micron Size 21","Counts/Channel 21","Micron Size 22","Counts/Channel 22","Micron Size 23","Counts/Channel 23","Micron Size 24","Counts/Channel 24","Micron Size 25","Counts/Channel 25","Micron Size 26","Counts/Channel 26","Micron Size 27","Counts/Channel 27","Micron Size 28","Counts/Channel 28","Micron Size 29","Counts/Channel 29","Micron Size 30","Counts/Channel 30","Micron Size 31","Counts/Channel 31"
"07/03/06","15:00:02","AMMA06",69530.000,"cc",28306.959,6.00,2830.696,1,6,0.100,34920.000,0.200,25970.000,0.300,5704.000,0.500,1753.000,1.000,1181.000,5.000,2.000
"07/03/06","15:00:08","AMMA06",69851.000,"cc",28335.045,6.00,2833.505,1,6,0.100,35224.000,0.200,26199.000,0.300,5611.000,0.500,1760.000,1.000,1057.000,5.000,0
"07/03/06","15:00:14","AMMA06",69101.000,"cc",28304.881,6.00,2830.488,1,6,0.100,34956.000,0.200,25674.000,0.300,5611.000,0.500,1733.000,1.000,1125.000,5.000,2.000
"07/03/06","15:00:20","AMMA06",69209.000,"cc",28332.928,6.00,2833.293,1,6,0.100,34802.000,0.200,26134.000,0.300,5467.000,0.500,1684.000,1.000,1122.000,5.000,0
"07/03/06","15:00:26","AMMA06",69675.000,"cc",28315.039,6.00,2831.504,1,6,0.100,35258.000,0.200,26008.000,0.300,5573.000,0.500,1714.000,1.000,1121.000,5.000,1.000
"07/03/06","15:00:32","AMMA06",69544.000,"cc",28334.451,6.00,2833.445,1,6,0.100,34843.000,0.200,26313.000,0.300,5539.000,0.500,1733.000,1.000,1116.000,5.000,0
"07/03/06","15:00:38","AMMA06",69322.000,"cc",28288.008,6.00,2828.801,1,6,0.100,34785.000,0.200,26190.000,0.300,5514.000,0.500,1681.000,1.000,1150.000,5.000,2.000
"07/03/06","15:00:44","AMMA06",69908.000,"cc",28304.234,6.00,2830.424,1,6,0.100,35282.000,0.200,26249.000,0.300,5492.000,0.500,1756.000,1.000,1128.000,5.000,1.000
"07/03/06","15:00:50","AMMA06",68961.000,"cc",28340.787,6.00,2834.079,1,6,0.100,34872.000,0.200,25841.000,0.300,5415.000,0.500,1738.000,1.000,1094.000,5.000,1.000
"07/03/06","15:00:56","AMMA06",69916.000,"cc",28283.482,6.00,2828.348,1,6,0.100,35325.000,0.200,26368.000,0.300,5402.000,0.500,1720.000,1.000,1099.000,5.000,2.000
"07/03/06","15:01:02","AMMA06",69684.000,"cc",28341.387,6.00,2834.139,1,6,0.100,35087.000,0.200,26158.000,0.300,5624.000,0.500,1714.000,1.000,1099.000,5.000,2.000
"07/03/06","15:01:08","AMMA06",69710.000,"cc",28350.580,6.00,2835.058,1,6,0.100,35275.000,0.200,26139.000,0.300,5451.000,0.500,1707.000,1.000,1136.000,5.000,2.000
"07/03/06","15:01:14","AMMA06",69272.000,"cc",28253.584,6.00,2825.359,1,6,0.100,35056.000,0.200,25969.000,0.300,5466.000,0.500,1670.000,1.000,1110.000,5.000,1.000
"07/03/06","15:01:20","AMMA06",69775.000,"cc",28331.844,6.00,2833.185,1,6,0.100,35349.000,0.200,25971.000,0.300,5637.000,0.500,1736.000,1.000,1082.000,5.000,0
"07/03/06","15:01:26","AMMA06",69410.000,"cc",28365.787,6.00,2836.579,1,6,0.100,34884.000,0.200,26152.000,0.300,5496.000,0.500,1737.000,1.000,1141.000,5.000,0
"07/03/06","15:01:32","AMMA06",69347.000,"cc",28321.570,6.00,2832.157,1,6,0.100,34997.000,0.200,26059.000,0.300,5501.000,0.500,1693.000,1.000,1097.000,5.000,0
"07/03/06","15:01:38","AMMA06",69471.000,"cc",28303.123,6.00,2830.313,1,6,0.100,35095.000,0.200,25998.000,0.300,5547.000,0.500,1721.000,1.000,1108.000,5.000,2.000
"07/03/06","15:01:44","AMMA06",69776.000,"cc",28316.356,6.00,2831.636,1,6,0.100,35189.000,0.200,26211.000,0.300,5490.000,0.500,1738.000,1.000,1148.000,5.000,0
"07/03/06","15:01:50","AMMA06",69967.000,"cc",28295.154,6.00,2829.516,1,6,0.100,35140.000,0.200,26383.000,0.300,5542.000,0.500,1804.000,1.000,1098.000,5.000,0
"07/03/06","15:01:56","AMMA06",69647.000,"cc",28305.436,6.00,2830.544,1,6,0.100,35195.000,0.200,26069.000,0.300,5498.000,0.500,1743.000,1.000,1142.000,5.000,0
"07/03/06","15:02:02","AMMA06",69825.000,"cc",28316.807,6.00,2831.681,1,6,0.100,35316.000,0.200,26125.000,0.300,5593.000,0.500,1697.000,1.000,1094.000,5.000,0
"07/03/06","15:02:08","AMMA06",70059.000,"cc",28318.940,6.00,2831.894,1,6,0.100,35323.000,0.200,26277.000,0.300,5607.000,0.500,1729.000,1.000,1122.000,5.000,1.000
"07/03/06","15:02:14","AMMA06",70326.000,"cc",28354.217,6.00,2835.422,1,6,0.100,35441.000,0.200,26292.000,0.300,5694.000,0.500,1751.000,1.000,1147.000,5.000,1.000
"07/03/06","15:02:20","AMMA06",69530.000,"cc",28383.221,6.00,2838.322,1,6,0.100,35092.000,0.200,25977.000,0.300,5678.000,0.500,1658.000,1.000,1124.000,5.000,1.000
"07/03/06","15:02:26","AMMA06",69848.000,"cc",28316.209,6.00,2831.621,1,6,0.100,35056.000,0.200,26293.000,0.300,5641.000,0.500,1743.000,1.000,1114.000,5.000,1.000
"07/03/06","15:02:32","AMMA06",69341.000,"cc",28293.129,6.00,2829.313,1,6,0.100,35046.000,0.200,25975.000,0.300,5584.000,0.500,1682.000,1.000,1054.000,5.000,0
"07/03/06","15:02:38","AMMA06",69495.000,"cc",28300.932,6.00,2830.093,1,6,0.100,35067.000,0.200,26036.000,0.300,5620.000,0.500,1711.000,1.000,1060.000,5.000,1.000
"07/03/06","15:02:44","AMMA06",70054.000,"cc",28333.588,6.00,2833.359,1,6,0.100,35466.000,0.200,25988.000,0.300,5660.000,0.500,1829.000,1.000,1111.000,5.000,0
"07/03/06","15:02:50","AMMA06",69693.000,"cc",28338.150,6.00,2833.815,1,6,0.100,35057.000,0.200,26247.000,0.300,5582.000,0.500,1705.000,1.000,1101.000,5.000,1.000
"07/03/06","15:02:56","AMMA06",69734.000,"cc",28274.783,6.00,2827.479,1,6,0.100,35107.000,0.200,26280.000,0.300,5506.000,0.500,1712.000,1.000,1128.000,5.000,1.000
"07/03/06","15:03:02","AMMA06",69229.000,"cc",28294.072,6.00,2829.408,1,6,0.100,35194.000,0.200,25738.000,0.300,5487.000,0.500,1719.000,1.000,1091.000,5.000,0
"07/03/06","15:03:08","AMMA06",69665.000,"cc",28306.043,6.00,2830.605,1,6,0.100,34980.000,0.200,26239.000,0.300,5677.000,0.500,1637.000,1.000,1132.000,5.000,0
"07/03/06","15:03:14","AMMA06",69812.000,"cc",28303.717,6.00,2830.372,1,6,0.100,35171.000,0.200,26179.000,0.300,5585.000,0.500,1768.000,1.000,1107.000,5.000,2.000
"07/03/06","15:03:20","AMMA06",70300.000,"cc",28335.498,6.00,2833.550,1,6,0.100,35354.000,0.200,26466.000,0.300,5704.000,0.500,1683.000,1.000,1093.000,5.000,0
"07/03/06","15:03:26","AMMA06",69670.000,"cc",28373.789,6.00,2837.379,1,6,0.100,34936.000,0.200,26269.000,0.300,5608.000,0.500,1691.000,1.000,1165.000,5.000,1.000
"07/03/06","15:03:32","AMMA06",69861.000,"cc",28239.824,6.00,2823.983,1,6,0.100,35091.000,0.200,26181.000,0.300,5706.000,0.500,1737.000,1.000,1146.000,5.000,0
"07/03/06","15:03:38","AMMA06",70300.000,"cc",28285.104,6.00,2828.511,1,6,0.100,35234.000,0.200,26692.000,0.300,5591.000,0.500,1712.000,1.000,1071.000,5.000,0
"07/03/06","15:03:44","AMMA06",69926.000,"cc",28359.195,6.00,2835.920,1,6,0.100,35057.000,0.200,26441.000,0.300,5612.000,0.500,1668.000,1.000,1148.000,5.000,0
"07/03/06","15:03:50","AMMA06",69375.000,"cc",28340.537,6.00,2834.054,1,6,0.100,34857.000,0.200,26069.000,0.300,5622.000,0.500,1711.000,1.000,1115.000,5.000,1.000
"07/03/06","15:03:56","AMMA06",69682.000,"cc",28328.955,6.00,2832.896,1,6,0.100,35025.000,0.200,26149.000,0.300,5639.000,0.500,1753.000,1.000,1114.000,5.000,2.000
"07/03/06","15:04:02","AMMA06",69613.000,"cc",28320.582,6.00,2832.058,1,6,0.100,34928.000,0.200,26154.000,0.300,5739.000,0.500,1731.000,1.000,1060.000,5.000,1.000
"07/03/06","15:04:08","AMMA06",70009.000,"cc",28326.797,6.00,2832.680,1,6,0.100,35355.000,0.200,26276.000,0.300,5530.000,0.500,1695.000,1.000,1152.000,5.000,1.000
"07/03/06","15:04:14","AMMA06",70138.000,"cc",28301.693,6.00,2830.169,1,6,0.100,35366.000,0.200,26350.000,0.300,5613.000,0.500,1708.000,1.000,1101.000,5.000,0
"07/03/06","15:04:20","AMMA06",69618.000,"cc",28318.121,6.00,2831.812,1,6,0.100,34846.000,0.200,26218.000,0.300,5666.000,0.500,1768.000,1.000,1118.000,5.000,2.000
"07/03/06","15:04:26","AMMA06",69978.000,"cc",28293.188,6.00,2829.319,1,6,0.100,35228.000,0.200,26281.000,0.300,5673.000,0.500,1712.000,1.000,1083.000,5.000,1.000
"07/03/06","15:04:32","AMMA06",70087.000,"cc",28349.606,6.00,2834.961,1,6,0.100,35173.000,0.200,26449.000,0.300,5589.000,0.500,1733.000,1.000,1142.000,5.000,1.000
"07/03/06","15:04:38","AMMA06",69311.000,"cc",28272.793,6.00,2827.280,1,6,0.100,35003.000,0.200,26004.000,0.300,5493.000,0.500,1727.000,1.000,1082.000,5.000,2.000
"07/03/06","15:04:44","AMMA06",69740.000,"cc",28372.998,6.00,2837.300,1,6,0.100,35168.000,0.200,26193.000,0.300,5496.000,0.500,1745.000,1.000,1137.000,5.000,1.000
"07/03/06","15:04:50","AMMA06",69741.000,"cc",28305.463,6.00,2830.546,1,6,0.100,35434.000,0.200,25906.000,0.300,5619.000,0.500,1673.000,1.000,1107.000,5.000,2.000
"07/03/06","15:04:56","AMMA06",69825.000,"cc",28257.906,6.00,2825.791,1,6,0.100,35246.000,0.200,26160.000,0.300,5526.000,0.500,1763.000,1.000,1129.000,5.000,1.000
"07/03/06","15:05:02","AMMA06",69074.000,"cc",28329.342,6.00,2832.934,1,6,0.100,35056.000,0.200,25793.000,0.300,5422.000,0.500,1693.000,1.000,1109.000,5.000,1.000
"07/03/06","15:05:08","AMMA06",69351.000,"cc",28337.123,6.00,2833.712,1,6,0.100,35104.000,0.200,25972.000,0.300,5405.000,0.500,1737.000,1.000,1131.000,5.000,2.000
"07/03/06","15:05:14","AMMA06",70250.000,"cc",28295.211,6.00,2829.521,1,6,0.100,35817.000,0.200,26229.000,0.300,5386.000,0.500,1755.000,1.000,1060.000,5.000,3.000
"07/03/06","15:05:20","AMMA06",69531.000,"cc",28334.975,6.00,2833.498,1,6,0.100,35174.000,0.200,25976.000,0.300,5538.000,0.500,1789.000,1.000,1054.000,5.000,0
"07/03/06","15:05:26","AMMA06",70083.000,"cc",28281.461,6.00,2828.146,1,6,0.100,35595.000,0.200,26041.000,0.300,5617.000,0.500,1754.000,1.000,1075.000,5.000,1.000
"07/03/06","15:05:32","AMMA06",69776.000,"cc",28330.965,6.00,2833.097,1,6,0.100,35493.000,0.200,26065.000,0.300,5473.000,0.500,1657.000,1.000,1088.000,5.000,0
"07/03/06","15:05:38","AMMA06",69766.000,"cc",28356.481,6.00,2835.648,1,6,0.100,35565.000,0.200,25923.000,0.300,5437.000,0.500,1767.000,1.000,1071.000,5.000,3.000
"07/03/06","15:05:44","AMMA06",69640.000,"cc",28336.900,6.00,2833.690,1,6,0.100,35613.000,0.200,25861.000,0.300,5499.000,0.500,1670.000,1.000,997.000,5.000,0
"07/03/06","15:05:50","AMMA06",69446.000,"cc",28322.084,6.00,2832.209,1,6,0.100,35341.000,0.200,25758.000,0.300,5502.000,0.500,1733.000,1.000,1110.000,5.000,2.000
"07/03/06","15:05:56","AMMA06",69659.000,"cc",28321.592,6.00,2832.159,1,6,0.100,35737.000,0.200,25662.000,0.300,5429.000,0.500,1701.000,1.000,1128.000,5.000,2.000
"07/03/06","15:06:02","AMMA06",69371.000,"cc",28332.408,6.00,2833.241,1,6,0.100,35216.000,0.200,26029.000,0.300,5297.000,0.500,1777.000,1.000,1051.000,5.000,1.000
"07/03/06","15:06:08","AMMA06",69708.000,"cc",28266.992,6.00,2826.700,1,6,0.100,35645.000,0.200,25829.000,0.300,5434.000,0.500,1711.000,1.000,1088.000,5.000,1.000
"07/03/06","15:06:14","AMMA06",69566.000,"cc",28297.820,6.00,2829.782,1,6,0.100,35471.000,0.200,25826.000,0.300,5395.000,0.500,1759.000,1.000,1113.000,5.000,2.000
"07/03/06","15:06:20","AMMA06",69704.000,"cc",28336.981,6.00,2833.698,1,6,0.100,35607.000,0.200,25850.000,0.300,5357.000,0.500,1790.000,1.000,1099.000,5.000,1.000
"07/03/06","15:06:26","AMMA06",69584.000,"cc",28322.510,6.00,2832.251,1,6,0.100,35497.000,0.200,25884.000,0.300,5231.000,0.500,1851.000,1.000,1120.000,5.000,1.000
"07/03/06","15:06:32","AMMA06",69390.000,"cc",28291.186,6.00,2829.119,1,6,0.100,35661.000,0.200,25696.000,0.300,5289.000,0.500,1698.000,1.000,1046.000,5.000,0
"07/03/06","15:06:38","AMMA06",69784.000,"cc",28352.588,6.00,2835.259,1,6,0.100,35666.000,0.200,25708.000,0.300,5534.000,0.500,1735.000,1.000,1141.000,5.000,0
"07/03/06","15:06:44","AMMA06",69459.000,"cc",28383.883,6.00,2838.388,1,6,0.100,35280.000,0.200,25926.000,0.300,5402.000,0.500,1733.000,1.000,1117.000,5.000,1.000
"07/03/06","15:06:50","AMMA06",70031.000,"cc",28253.647,6.00,2825.365,1,6,0.100,35674.000,0.200,26074.000,0.300,5492.000,0.500,1680.000,1.000,1111.000,5.000,0
"07/03/06","15:06:56","AMMA06",69767.000,"cc",28281.861,6.00,2828.186,1,6,0.100,35629.000,0.200,25924.000,0.300,5369.000,0.500,1720.000,1.000,1125.000,5.000,0
"07/03/06","15:07:02","AMMA06",69588.000,"cc",28314.414,6.00,2831.442,1,6,0.100,35608.000,0.200,25711.000,0.300,5407.000,0.500,1758.000,1.000,1104.000,5.000,0
"07/03/06","15:07:08","AMMA06",69929.000,"cc",28314.385,6.00,2831.439,1,6,0.100,35790.000,0.200,26083.000,0.300,5241.000,0.500,1733.000,1.000,1081.000,5.000,1.000
"07/03/06","15:07:14","AMMA06",69625.000,"cc",28304.799,6.00,2830.480,1,6,0.100,35504.000,0.200,25795.000,0.300,5486.000,0.500,1734.000,1.000,1106.000,5.000,0
"07/03/06","15:07:20","AMMA06",69891.000,"cc",28336.492,6.00,2833.649,1,6,0.100,35734.000,0.200,25754.000,0.300,5578.000,0.500,1747.000,1.000,1078.000,5.000,0
"07/03/06","15:07:26","AMMA06",69460.000,"cc",28319.664,6.00,2831.967,1,6,0.100,35760.000,0.200,25642.000,0.300,5278.000,0.500,1694.000,1.000,1086.000,5.000,0
"07/03/06","15:07:32","AMMA06",69561.000,"cc",28322.725,6.00,2832.273,1,6,0.100,35673.000,0.200,25710.000,0.300,5364.000,0.500,1727.000,1.000,1085.000,5.000,2.000
"07/03/06","15:07:38","AMMA06",69514.000,"cc",28320.557,6.00,2832.056,1,6,0.100,35575.000,0.200,25762.000,0.300,5370.000,0.500,1721.000,1.000,1082.000,5.000,4.000
"07/03/06","15:07:44","AMMA06",69209.000,"cc",28333.018,6.00,2833.302,1,6,0.100,35396.000,0.200,25550.000,0.300,5435.000,0.500,1691.000,1.000,1137.000,5.000,0
"07/03/06","15:07:50","AMMA06",69420.000,"cc",28347.449,6.00,2834.745,1,6,0.100,35220.000,0.200,26048.000,0.300,5462.000,0.500,1617.000,1.000,1073.000,5.000,0
"07/03/06","15:07:56","AMMA06",69630.000,"cc",28315.234,6.00,2831.524,1,6,0.100,35346.000,0.200,26012.000,0.300,5506.000,0.500,1661.000,1.000,1104.000,5.000,1.000
"07/03/06","15:08:02","AMMA06",69263.000,"cc",28292.979,6.00,2829.298,1,6,0.100,35393.000,0.200,25743.000,0.300,5319.000,0.500,1694.000,1.000,1113.000,5.000,1.000
"07/03/06","15:08:08","AMMA06",69511.000,"cc",28298.014,6.00,2829.802,1,6,0.100,35479.000,0.200,25733.000,0.300,5390.000,0.500,1804.000,1.000,1102.000,5.000,3.000
"07/03/06","15:08:14","AMMA06",69699.000,"cc",28315.553,6.00,2831.555,1,6,0.100,35616.000,0.200,25939.000,0.300,5331.000,0.500,1712.000,1.000,1101.000,5.000,0
"07/03/06","15:08:20","AMMA06",69281.000,"cc",28308.545,6.00,2830.855,1,6,0.100,35435.000,0.200,25755.000,0.300,5178.000,0.500,1757.000,1.000,1154.000,5.000,2.000
"07/03/06","15:08:26","AMMA06",69902.000,"cc",28260.277,6.00,2826.028,1,6,0.100,35633.000,0.200,26125.000,0.300,5300.000,0.500,1748.000,1.000,1096.000,5.000,0
"07/03/06","15:08:32","AMMA06",69674.000,"cc",28336.686,6.00,2833.669,1,6,0.100,35564.000,0.200,25694.000,0.300,5552.000,0.500,1739.000,1.000,1125.000,5.000,0
"07/03/06","15:08:38","AMMA06",70228.000,"cc",28309.965,6.00,2830.997,1,6,0.100,35963.000,0.200,26016.000,0.300,5323.000,0.500,1834.000,1.000,1090.000,5.000,2.000
"07/03/06","15:08:44","AMMA06",69624.000,"cc",28332.748,6.00,2833.275,1,6,0.100,35446.000,0.200,25999.000,0.300,5375.000,0.500,1744.000,1.000,1058.000,5.000,2.000
"07/03/06","15:08:50","AMMA06",69792.000,"cc",28320.293,6.00,2832.030,1,6,0.100,35722.000,0.200,25786.000,0.300,5402.000,0.500,1742.000,1.000,1138.000,5.000,2.000
"07/03/06","15:08:56","AMMA06",69411.000,"cc",28335.475,6.00,2833.548,1,6,0.100,35392.000,0.200,25791.000,0.300,5442.000,0.500,1717.000,1.000,1067.000,5.000,2.000
"07/03/06","15:09:02","AMMA06",69149.000,"cc",28329.049,6.00,2832.905,1,6,0.100,35153.000,0.200,25774.000,0.300,5425.000,0.500,1712.000,1.000,1084.000,5.000,1.000
"07/03/06","15:09:08","AMMA06",69472.000,"cc",28327.740,6.00,2832.774,1,6,0.100,35505.000,0.200,25836.000,0.300,5333.000,0.500,1661.000,1.000,1137.000,5.000,0
"07/03/06","15:09:14","AMMA06",69428.000,"cc",28329.773,6.00,2832.978,1,6,0.100,35394.000,0.200,25904.000,0.300,5294.000,0.500,1759.000,1.000,1075.000,5.000,2.000
"07/03/06","15:09:20","AMMA06",69649.000,"cc",28261.969,6.00,2826.197,1,6,0.100,35339.000,0.200,26049.000,0.300,5440.000,0.500,1706.000,1.000,1113.000,5.000,2.000
"07/03/06","15:09:26","AMMA06",69459.000,"cc",28331.451,6.00,2833.145,1,6,0.100,35469.000,0.200,25730.000,0.300,5461.000,0.500,1706.000,1.000,1091.000,5.000,2.000
"07/03/06","15:09:32","AMMA06",69564.000,"cc",28268.248,6.00,2826.825,1,6,0.100,35550.000,0.200,26045.000,0.300,5264.000,0.500,1643.000,1.000,1062.000,5.000,0
"07/03/06","15:09:38","AMMA06",68940.000,"cc",28344.693,6.00,2834.470,1,6,0.100,35083.000,0.200,25739.000,0.300,5324.000,0.500,1704.000,1.000,1090.000,5.000,0
"07/03/06","15:09:44","AMMA06",69561.000,"cc",28316.775,6.00,2831.678,1,6,0.100,35333.000,0.200,25958.000,0.300,5451.000,0.500,1731.000,1.000,1088.000,5.000,0
"07/03/06","15:09:50","AMMA06",69442.000,"cc",28285.555,6.00,2828.556,1,6,0.100,35330.000,0.200,25994.000,0.300,5312.000,0.500,1717.000,1.000,1088.000,5.000,1.000
"07/03/06","15:09:56","AMMA06",69531.000,"cc",28338.047,6.00,2833.805,1,6,0.100,35611.000,0.200,25574.000,0.300,5442.000,0.500,1808.000,1.000,1095.000,5.000,1.000
"07/03/06","15:10:02","AMMA06",69847.000,"cc",28325.184,6.00,2832.519,1,6,0.100,35627.000,0.200,25973.000,0.300,5363.000,0.500,1779.000,1.000,1104.000,5.000,1.000
"07/03/06","15:10:08","AMMA06",69375.000,"cc",28358.680,6.00,2835.868,1,6,0.100,35432.000,0.200,25836.000,0.300,5277.000,0.500,1714.000,1.000,1115.000,5.000,1.000
"07/03/06","15:10:14","AMMA06",69447.000,"cc",28292.947,6.00,2829.295,1,6,0.100,35223.000,0.200,26011.000,0.300,5346.000,0.500,1715.000,1.000,1152.000,5.000,0
"07/03/06","15:10:20","AMMA06",69980.000,"cc",28254.510,6.00,2825.451,1,6,0.100,35839.000,0.200,26132.000,0.300,5260.000,0.500,1684.000,1.000,1064.000,5.000,1.000
"07/03/06","15:10:26","AMMA06",69583.000,"cc",28357.430,6.00,2835.743,1,6,0.100,35361.000,0.200,25996.000,0.300,5364.000,0.500,1743.000,1.000,1119.000,5.000,0
"07/03/06","15:10:32","AMMA06",69142.000,"cc",28312.920,6.00,2831.292,1,6,0.100,35159.000,0.200,25833.000,0.300,5374.000,0.500,1658.000,1.000,1117.000,5.000,1.000
"07/03/06","15:10:38","AMMA06",69886.000,"cc",28316.615,6.00,2831.662,1,6,0.100,35654.000,0.200,25976.000,0.300,5472.000,0.500,1729.000,1.000,1054.000,5.000,1.000
"07/03/06","15:10:44","AMMA06",69176.000,"cc",28330.981,6.00,2833.098,1,6,0.100,35124.000,0.200,25874.000,0.300,5354.000,0.500,1738.000,1.000,1086.000,5.000,0
"07/03/06","15:10:50","AMMA06",69235.000,"cc",28313.357,6.00,2831.336,1,6,0.100,35215.000,0.200,25804.000,0.300,5320.000,0.500,1790.000,1.000,1105.000,5.000,1.000
"07/03/06","15:10:56","AMMA06",69876.000,"cc",28307.416,6.00,2830.742,1,6,0.100,35843.000,0.200,25728.000,0.300,5429.000,0.500,1736.000,1.000,1140.000,5.000,0
"07/03/06","15:11:02","AMMA06",69452.000,"cc",28327.811,6.00,2832.781,1,6,0.100,35342.000,0.200,25922.000,0.300,5374.000,0.500,1733.000,1.000,1081.000,5.000,0
"07/03/06","15:11:08","AMMA06",69222.000,"cc",28311.959,6.00,2831.196,1,6,0.100,35341.000,0.200,25671.000,0.300,5345.000,0.500,1789.000,1.000,1076.000,5.000,0
"07/03/06","15:11:14","AMMA06",69403.000,"cc",28323.016,6.00,2832.302,1,6,0.100,35479.000,0.200,25711.000,0.300,5415.000,0.500,1640.000,1.000,1157.000,5.000,1.000
"07/03/06","15:11:20","AMMA06",69535.000,"cc",28332.875,6.00,2833.288,1,6,0.100,35591.000,0.200,25687.000,0.300,5434.000,0.500,1762.000,1.000,1060.000,5.000,1.000
"07/03/06","15:11:26","AMMA06",69809.000,"cc",28310.594,6.00,2831.060,1,6,0.100,35771.000,0.200,25782.000,0.300,5367.000,0.500,1724.000,1.000,1164.000,5.000,1.000
"07/03/06","15:11:32","AMMA06",69513.000,"cc",28296.236,6.00,2829.624,1,6,0.100,35228.000,0.200,26023.000,0.300,5342.000,0.500,1778.000,1.000,1142.000,5.000,0
"07/03/06","15:11:38","AMMA06",69427.000,"cc",28335.621,6.00,2833.562,1,6,0.100,34966.000,0.200,26001.000,0.300,5524.000,0.500,1824.000,1.000,1111.000,5.000,1.000
"07/03/06","15:11:44","AMMA06",69383.000,"cc",28298.238,6.00,2829.824,1,6,0.100,35314.000,0.200,25922.000,0.300,5388.000,0.500,1664.000,1.000,1094.000,5.000,1.000
"07/03/06","15:11:50","AMMA06",69297.000,"cc",28287.354,6.00,2828.736,1,6,0.100,35339.000,0.200,25798.000,0.300,5304.000,0.500,1742.000,1.000,1114.000,5.000,0
"07/03/06","15:11:56","AMMA06",69899.000,"cc",28372.848,6.00,2837.285,1,6,0.100,35558.000,0.200,26111.000,0.300,5438.000,0.500,1692.000,1.000,1099.000,5.000,1.000
"07/03/06","15:12:02","AMMA06",69310.000,"cc",28302.133,6.00,2830.213,1,6,0.100,35614.000,0.200,25582.000,0.300,5316.000,0.500,1670.000,1.000,1126.000,5.000,2.000
"07/03/06","15:12:08","AMMA06",69134.000,"cc",28321.469,6.00,2832.147,1,6,0.100,35224.000,0.200,25630.000,0.300,5390.000,0.500,1754.000,1.000,1135.000,5.000,1.000
"07/03/06","15:12:14","AMMA06",69372.000,"cc",28305.162,6.00,2830.516,1,6,0.100,35152.000,0.200,25903.000,0.300,5471.000,0.500,1718.000,1.000,1128.000,5.000,0
"07/03/06","15:12:20","AMMA06",69870.000,"cc",28298.727,6.00,2829.873,1,6,0.100,35616.000,0.200,25873.000,0.300,5557.000,0.500,1732.000,1.000,1088.000,5.000,4.000
"07/03/06","15:12:26","AMMA06",69767.000,"cc",28298.025,6.00,2829.803,1,6,0.100,35672.000,0.200,25943.000,0.300,5380.000,0.500,1739.000,1.000,1031.000,5.000,2.000
"07/03/06","15:12:32","AMMA06",69874.000,"cc",28265.785,6.00,2826.579,1,6,0.100,35508.000,0.200,26101.000,0.300,5386.000,0.500,1729.000,1.000,1150.000,5.000,0
"07/03/06","15:12:38","AMMA06",69412.000,"cc",28408.799,6.00,2840.880,1,6,0.100,35324.000,0.200,25887.000,0.300,5446.000,0.500,1634.000,1.000,1119.000,5.000,2.000
"07/03/06","15:12:44","AMMA06",69473.000,"cc",28336.375,6.00,2833.638,1,6,0.100,35428.000,0.200,25953.000,0.300,5290.000,0.500,1657.000,1.000,1144.000,5.000,1.000
"07/03/06","15:12:50","AMMA06",69405.000,"cc",28277.059,6.00,2827.706,1,6,0.100,35411.000,0.200,25827.000,0.300,5421.000,0.500,1675.000,1.000,1071.000,5.000,0
"07/03/06","15:12:56","AMMA06",69295.000,"cc",28343.893,6.00,2834.389,1,6,0.100,35258.000,0.200,25857.000,0.300,5397.000,0.500,1758.000,1.000,1025.000,5.000,0
"07/03/06","15:13:02","AMMA06",69403.000,"cc",28332.555,6.00,2833.256,1,6,0.100,35236.000,0.200,25875.000,0.300,5481.000,0.500,1698.000,1.000,1112.000,5.000,1.000
"07/03/06","15:13:08","AMMA06",69197.000,"cc",28326.617,6.00,2832.662,1,6,0.100,35213.000,0.200,25785.000,0.300,5404.000,0.500,1706.000,1.000,1086.000,5.000,3.000
"07/03/06","15:13:14","AMMA06",69349.000,"cc",28329.877,6.00,2832.988,1,6,0.100,35203.000,0.200,25888.000,0.300,5467.000,0.500,1723.000,1.000,1068.000,5.000,0
"07/03/06","15:13:20","AMMA06",69214.000,"cc",28266.859,6.00,2826.686,1,6,0.100,35217.000,0.200,25709.000,0.300,5457.000,0.500,1746.000,1.000,1085.000,5.000,0
"07/03/06","15:13:26","AMMA06",68930.000,"cc",28333.262,6.00,2833.326,1,6,0.100,35107.000,0.200,25736.000,0.300,5305.000,0.500,1722.000,1.000,1058.000,5.000,2.000
"07/03/06","15:13:32","AMMA06",69530.000,"cc",28350.420,6.00,2835.042,1,6,0.100,35378.000,0.200,26072.000,0.300,5328.000,0.500,1722.000,1.000,1030.000,5.000,0
"07/03/06","15:13:38","AMMA06",69369.000,"cc",28286.709,6.00,2828.671,1,6,0.100,35268.000,0.200,25904.000,0.300,5266.000,0.500,1813.000,1.000,1117.000,5.000,1.000
"07/03/06","15:13:44","AMMA06",69637.000,"cc",28260.035,6.00,2826.004,1,6,0.100,35357.000,0.200,26121.000,0.300,5316.000,0.500,1744.000,1.000,1098.000,5.000,1.000
"07/03/06","15:13:50","AMMA06",69460.000,"cc",28350.121,6.00,2835.012,1,6,0.100,35389.000,0.200,25969.000,0.300,5282.000,0.500,1766.000,1.000,1053.000,5.000,1.000